Location: Kawakawa
(35.3830°S, 174.0670°E)
Time: 17:37:46
(UTC+13:00)

A-11 Canister half - Pass Details

Date: 15 December 2019
Orbit: 1525 x 1684 km, 47.3° (Epoch: 28 January)

Event Time Altitude Azimuth Distance (km) Brightness Sun altitude
Rises 23:49:26 0° 237° (WSW) 4,698 12.4 -27.8°
Reaches altitude 10° 23:52:31 10° 234° (SW) 3,720 11.7 -28.0°
Maximum altitude 00:01:54 70° 150° (SSE) 1,642 9.1 -28.7°
Enters shadow 00:06:51 33° 74° (ENE) 2,425 9.7 -29.0°
